Regional Weather Roundup
Issued by NWS

Home | Current Version | Previous Version | Text Only | Print | Product List | Glossary On
Versions: 1 2 3 4 5 6 7 8 9 10 11 12 13 14 15 16 17 18 19 20 21 22 23 24 25 26 27 28 29 30 31 32 33 34 35 36 37 38 39 40 41 42 43 44 45 46 47 48 49 50
000
ASCA42 TJSJ 240310
RWRPR
PUERTO RICO/U.S. VIRGIN ISLANDS HOURLY WEATHER ROUNDUP
NATIONAL WEATHER SERVICE SAN JUAN PR
1100 PM AST SAT JUL 23 2016

PRZ001-004-240400-
PUERTO RICO

CITY           SKY/WX    TMP DP  RH WIND       PRES   REMARKS
SAN JUAN LMM   PTCLDY    81  75  83 E8        30.03R
PONCE          PTCLDY    81  73  78 NE6       30.01
CEIBA          CLEAR     81  75  83 E7        30.05S
$$

PRZ006-007-240400-
U.S. VIRGIN ISLANDS

CITY           SKY/WX    TMP DP  RH WIND       PRES   REMARKS
CHRISTIANSTED  PTCLDY    81  73  78 NE10      30.03R
$$

HOURLY WEATHER ROUNDUP FOR THE NEWS MEDIA

CITY           SKY/WX    TMP DP  RH WIND       PRES   REMARKS
ORLANDO        PTCLDY    77  75  93 CALM      30.05R
NEW YORK       CLEAR     88  52  29 NW9       29.88R
NEWARK         PTCLDY    87  54  32 NW12      29.87R
CHICAGO        TSTM      73  69  87 N10       29.99R
HARTFORD       MOCLDY    67  64  90 CALM      29.85R
BOSTON         MOCLDY    72  58  61 NW16      29.85R
DALLAS         CLEAR     93  71  48 SE12      29.90R HX 100
PHILADELPHIA   PTCLDY    80  70  71 SW6       29.89F
LOS ANGELES    MOCLDY    74  65  73 SE8       29.81R
WASHINGTON DC  FAIR      76  74  93 SE3       29.93R


USA.gov is the U.S. government's official web portal to all federal, state and local government web resources and services.